World > North America > United States > Oregon

Helvetia, Oregon Regional Weather

Lat: 45.60N, Lon: 122.92W
Wx Zone: ORZ006Web Search

Ads allow us to feed your daily addiction for the world's greatest weather information. We're determined to offer quality sponsors, in the least annoying way possible.

Feedback


°F Click to change Helvetia hourly weather to Imperial units.Click to change Helvetia hourly weather to Metric units. °C
Helvetia Weather Map
UTC Time: 5/11/2021, 07:32
Your Time:

Helvetia, OR Regional Weather

Expires:202105110800;;933077
ASUS46 KPQR 110710
RWROR 

OREGON REGIONAL WEATHER ROUNDUP
NATIONAL WEATHER SERVICE PORTLAND OR
1200 AM PDT TUE MAY 11 2021

NOTE: "FAIR" INDICATES FEW OR NO CLOUDS BELOW 12,000 FEET WITH
NO SIGNIFICANT WEATHER AND/OR OBSTRUCTIONS TO VISIBILITY.


ORZ001>013-110800-
NORTHWEST OREGON

  
CITY           SKY/WX    TMP DP  RH WIND       PRES   REMARKS
ASTORIA        CLEAR     50  44  80 N14       30.25F                  
TILLAMOOK      CLEAR     45  41  87 SE3       30.26S                  
NEWPORT        CLEAR     46  45  93 CALM      30.25S                  
FLORENCE       FAIR      49  45  87 N6        30.19F                  
PORTLAND       CLEAR     55  45  68 NW13      30.19S                  
VANCOUVER WA   CLEAR     55  43  63 NW9G18    30.19S                  
SCAPPOOSE      CLEAR     54  43  66 NW8       30.19S                  
HILLSBORO      CLEAR     51  44  77 W10       30.19S                  
AURORA         CLEAR     53  43  68 N5        30.20R                  
MCMINNVILLE    CLEAR     46  43  89 W5        30.19S                  
SALEM          CLEAR     52  43  71 N7        30.18S                  
CORVALLIS      CLEAR     51  49  92 NW9       30.19S                  
EUGENE         CLEAR     48  44  86 E6        30.17S                  
CRESWELL       CLEAR     48  46  93 CALM      30.16S                  
$$


SKY/WX - Weather  TMP - Temperature  DP - Dew Point  RH - Relative Humidity
WIND - Wind Direction/Speed PRES - Barometric Pressure VSB - Visibility
WCI - Wind Chill Index E13G22 Wind - East Wind 13 mph/Gusts of 22 mph